Flag for Australia Weather past 2 weeks in The Settlement, Christmas Island, Australia

Now
73 °F

Passing clouds.


Feels Like: 73 °F
Forecast: 74 / 78 °F
Wind: 10 mph from East

Location: Christmas Island Aerodrome

Current Time: Aug 28, 2014 at 5:12:53 AM

Latest Report: Aug 28, 2014 at 4:00 AM


Visibility: N/A

Pressure: 29.92 "Hg

Humidity: 83%

Dew point: 68 °F

Location of The SettlementLocation

Historic Weather in The Settlement — Graph

°F

The Settlement temperature yesterday

Maximum temperature yesterday: 79 °F (at 10:00 AM)
Minimum temperature yesterday: 73 °F (at 12:00 AM)
Average temperature yesterday: 76 °F

Past Weeks' High & Low Weather Summary

 TemperatureHumidityPressure
High81 °F (Aug 13, 1:00 PM)100% (Aug 13, 9:00 AM)30.07 "Hg (Aug 13, 9:00 AM)
Low73 °F (Aug 15, 3:00 AM)58% (Aug 17, 11:00 AM)29.86 "Hg (Aug 22, 3:00 PM)
Average76 °F75%29.97 "Hg
* Reported Aug 13 4:00 AM — Aug 28 4:00 AM, The Settlement, Weather by CustomWeather, © 2014

Note: Actual official high and low records may vary slightly from our data, if they occured in-between our weather recording intervals... More about our weather records

Advertising

The Settlement weather history for previous 24 hours

 ConditionsComfort  
Time TempWeatherWind HumidityBarometerVisibility
4:00 AM
Aug 28
73 °FPassing clouds.10 mph83%29.92 "HgN/A
3:00 AM75 °FPassing clouds.12 mph83%29.92 "HgN/A
2:00 AM75 °FPassing clouds.10 mph83%29.92 "HgN/A
1:00 AM75 °FPassing clouds.13 mph83%29.95 "HgN/A
12:00 AM73 °FPassing clouds.13 mph83%29.95 "HgN/A
11:00 PM
Aug 27
75 °FPartly cloudy.14 mph78%29.95 "HgN/A
10:00 PM75 °FPassing clouds.13 mph78%29.95 "HgN/A
9:00 PM75 °FPassing clouds.15 mph78%29.95 "HgN/A
8:00 PM75 °FPassing clouds.14 mph78%29.92 "HgN/A
7:00 PM75 °FPartly cloudy.15 mph78%29.92 "HgN/A
6:00 PM75 °FPassing clouds.15 mph78%29.89 "HgN/A
5:00 PM75 °FPartly sunny.15 mph78%29.86 "HgN/A
4:00 PM77 °FScattered clouds.15 mph74%29.86 "HgN/A
3:00 PM79 °FScattered clouds.16 mph65%29.86 "HgN/A
2:00 PM79 °FScattered clouds.17 mph65%29.89 "HgN/A
1:00 PM79 °FPartly sunny.16 mph70%29.92 "HgN/A
12:00 PM79 °FPartly sunny.15 mph70%29.92 "HgN/A
11:00 AM77 °FPartly sunny.16 mph74%29.95 "HgN/A
10:00 AM79 °FScattered clouds.16 mph61%29.98 "HgN/A
9:00 AM77 °FBroken clouds.17 mph69%29.98 "HgN/A
8:00 AM75 °FBroken clouds.15 mph78%29.95 "HgN/A
7:00 AM75 °FScattered clouds.15 mph74%29.95 "HgN/A
6:00 AM73 °FPassing clouds.13 mph78%29.92 "HgN/A
5:00 AM73 °FPassing clouds.13 mph78%29.92 "HgN/A
Weather by CustomWeather, © 2014

See weather overviewHow to use our weather pages